Regional Weather Roundup
Issued by NWS

Home | Current Version | Previous Version | Text Only | Print | Product List | Glossary Off
Versions: 1 2 3 4 5 6 7 8 9 10 11 12 13 14 15 16 17 18 19 20 21 22 23 24 25 26 27 28 29 30 31 32 33 34 35 36 37 38 39 40 41 42 43 44 45 46 47 48 49 50

000
ASUS43 KIND 020709
RWRIN

WEATHER ROUNDUP FOR INDIANA
NATIONAL WEATHER SERVICE INDIANAPOLIS IN
200 AM EST FRI DEC 02 2016

NOTE: "FAIR" INDICATES FEW OR NO CLOUDS BELOW 12,000 FEET WITH NO
SIGNIFICANT WEATHER AND/OR OBSTRUCTIONS TO VISIBILITY.

* - STATION DOES NOT REPORT WEATHER SUCH AS PRECIPITATION OR FOG.

+ - STATION NOT QUALITY CONTROLLED BY THE NATIONAL WEATHER SERVICE.
    USE DATA WITH CAUTION...ESPECIALLY DEWPOINT AND RELATIVE
    HUMIDITY OBSERVATIONS.

INZ001>003-010>013-019-020-020800-
NORTHWEST INDIANA

CITY           SKY/WX    TMP DP  RH WIND       PRES   REMARKS
GARY /AIRPORT/ DRIZZLE   38  35  89 SW6       30.03R
KNOX *+        CLOUDY    36  21  55 W9        30.02R
LA PORTE +     CLOUDY    38  38 100 W10       30.01R
MICHIGAN CITY+ CLOUDY    36  32  87 SW8       30.01R
MONTICELLO +   CLOUDY    36  28  74 SW9       30.04R
RENSSELAER +   CLOUDY    36  34  93 SW10G16   30.05R
VALPARAISO     CLOUDY    36  33  89 W7        30.02R

$$

LMZ046-743>745-020800-
SOUTHERN LAKE MICHIGAN

STATION/POSITION TIME  TEMP    WIND        PRES    WAVE
                       AIR SEA DIR/SP/G            HT
                 (UTC) (F)     (DEG/KT/KT) (MB)    (FT)
BURNS HARBOR     0640   39     230/ 15/ 18 1016.9R
MICHIGAN CITY    0640   39     230/ 22/ 24   N/A

$$

INZ004-005-014>016-021>024-020800-
NORTH CENTRAL INDIANA

CITY           SKY/WX    TMP DP  RH WIND       PRES   REMARKS
GOSHEN         CLOUDY    37  31  78 SW14      29.99R
LOGANSPORT +   CLOUDY    34  32  93 SW9       30.05S WCI  26
PERU/GRISSOM   CLOUDY    36  32  88 W12       30.02S
ROCHESTER +    CLOUDY    37  36  93 W9        30.03R
SOUTH BEND     CLOUDY    36  32  85 SW13      30.00R
WARSAW +       CLOUDY    36  32  87 W8        30.01S

$$

INZ006>009-017-018-025>027-020800-
NORTHEAST INDIANA

CITY           SKY/WX    TMP DP  RH WIND       PRES   REMARKS
ANGOLA *+      CLOUDY    36  34  93 W10       29.97R
AUBURN +       CLOUDY    36  32  87 SW8       30.00S
FORT WAYNE     CLOUDY    36  31  82 W12       30.02R
HUNTINGTON +   CLOUDY    35  32  87 W9        30.02S WCI  28
KENDALLVILLE + CLOUDY    36  32  87 W13       29.98S

$$

INZ028-029-035-036-043>045-051>053-020800-
WEST CENTRAL INDIANA

CITY           SKY/WX    TMP DP  RH WIND       PRES   REMARKS
CRAWFORDSVL +  CLOUDY    33  29  85 W9        30.08R WCI  26
GREENCASTLE +  CLOUDY    34  32  93 W7        30.09R WCI  28
LAFAYETTE      CLOUDY    36  30  79 SW8       30.07R
TERRE HAUTE    CLOUDY    37  29  72 W6        30.11R

$$

INZ030>032-037>040-046>048-054>057-064-065-020800-
CENTRAL INDIANA

CITY           SKY/WX    TMP DP  RH WIND       PRES   REMARKS
CP ATTERBURY + CLOUDY    36  30  80 W5        30.10R
FISHERS *+     CLOUDY    34  32  93 W7        30.07  WCI  28
FRANKFORT +    CLOUDY    38  32  80 W14       30.08R
GREENWOOD *+   CLOUDY    37  31  79 W8        30.08R
INDIANAPOLIS   CLOUDY    36  28  73 W12       30.08R
-EAGLE CREEK   CLOUDY    37  29  72 W9        30.07R
KOKOMO +       CLOUDY    36  30  79 SW14      30.05S
MARION +       CLOUDY    35  31  84 W12       30.04S WCI  27
MT COMFORT *+  CLOUDY    36  30  80 W8        30.07R
SHELBYVILLE    CLOUDY    37  28  70 W12       30.08R
ZIONSVILLE +   CLOUDY    35  30  82 W14       30.07R WCI  25

$$

INZ033-034-041-042-049-050-058-059-020800-
EAST CENTRAL INDIANA

CITY           SKY/WX    TMP DP  RH WIND       PRES   REMARKS
MUNCIE         CLOUDY    37  29  72 W9        30.05R

$$

INZ060-061-067>069-081>083-085>088-020800-
SOUTHWEST INDIANA

CITY           SKY/WX    TMP DP  RH WIND       PRES   REMARKS
EVANSVILLE     CLEAR     30  27  88 CALM      30.15R
HUNTINGBURG *+ CLEAR     27  25  92 CALM      30.13S
WASHINGTON +   PTCLDY    32  31  98 CALM      30.12S

$$

INZ062-063-066-070>080-084-089>092-020800-
SOUTH CENTRAL AND SOUTHEAST INDIANA

CITY           SKY/WX    TMP DP  RH WIND       PRES   REMARKS
BLOOMINGTON    CLOUDY    36  28  73 W3        30.09R
MADISON *+     CLOUDY    32  30  93 SW3       30.11R
NORTH VERNON + CLOUDY    37  36  93 W7        30.09R
SEYMOUR +      CLOUDY    37  30  75 SW3       30.11R

$$





USA.gov is the U.S. government's official web portal to all federal, state and local government web resources and services.